TimeMDT,TemperatureF,Dew PointF,Humidity,Sea Level PressureIn,VisibilityMPH,Wind Direction,Wind SpeedMPH,Gust SpeedMPH,PrecipitationIn,Events,Conditions,WindDirDegrees,DateUTC
12:53 AM,39.9,28.0,63,30.08,10.0,South,5.8,-,N/A,,Clear,180,2013-10-21 06:53:00
1:53 AM,42.1,27.0,55,30.08,10.0,South,6.9,-,N/A,,Clear,170,2013-10-21 07:53:00
2:53 AM,41.0,27.0,57,30.10,10.0,SSE,6.9,-,N/A,,Clear,160,2013-10-21 08:53:00
3:53 AM,39.9,27.0,60,30.10,10.0,South,8.1,-,N/A,,Clear,170,2013-10-21 09:53:00
4:53 AM,41.0,26.1,55,30.11,10.0,South,5.8,-,N/A,,Clear,180,2013-10-21 10:53:00
5:53 AM,39.0,27.0,62,30.13,10.0,SSE,6.9,-,N/A,,Clear,160,2013-10-21 11:53:00
6:53 AM,39.0,26.1,60,30.14,10.0,SSE,6.9,-,N/A,,Clear,160,2013-10-21 12:53:00
7:53 AM,37.9,26.1,62,30.18,10.0,South,5.8,-,N/A,,Clear,190,2013-10-21 13:53:00
8:53 AM,42.1,27.0,55,30.19,10.0,South,4.6,-,N/A,,Clear,180,2013-10-21 14:53:00
9:53 AM,46.0,28.0,50,30.21,10.0,SE,4.6,-,N/A,,Clear,140,2013-10-21 15:53:00
10:53 AM,51.1,28.0,41,30.20,10.0,SSW,3.5,-,N/A,,Clear,210,2013-10-21 16:53:00
11:53 AM,55.0,30.0,38,30.20,10.0,ESE,3.5,-,N/A,,Clear,110,2013-10-21 17:53:00
12:53 PM,57.9,32.0,37,30.19,10.0,Calm,Calm,-,N/A,,Clear,0,2013-10-21 18:53:00
1:53 PM,59.0,30.9,35,30.17,10.0,Calm,Calm,-,N/A,,Clear,0,2013-10-21 19:53:00
2:53 PM,62.1,28.9,29,30.14,10.0,Calm,Calm,-,N/A,,Clear,0,2013-10-21 20:53:00
3:53 PM,63.0,30.0,29,30.15,10.0,Variable,3.5,-,N/A,,Clear,0,2013-10-21 21:53:00
4:53 PM,62.1,32.0,32,30.14,10.0,WNW,4.6,-,N/A,,Clear,300,2013-10-21 22:53:00
5:53 PM,60.1,30.0,32,30.15,10.0,NW,5.8,-,N/A,,Clear,310,2013-10-21 23:53:00
6:53 PM,54.0,33.1,45,30.17,10.0,West,4.6,-,N/A,,Clear,260,2013-10-22 00:53:00
7:53 PM,52.0,33.1,49,30.18,10.0,ESE,3.5,-,N/A,,Clear,110,2013-10-22 01:53:00
8:53 PM,50.0,33.1,52,30.19,10.0,South,3.5,-,N/A,,Clear,190,2013-10-22 02:53:00
9:53 PM,46.0,33.1,61,30.20,10.0,South,5.8,-,N/A,,Clear,180,2013-10-22 03:53:00
10:53 PM,45.0,30.0,56,30.20,10.0,South,8.1,-,N/A,,Clear,170,2013-10-22 04:53:00
11:53 PM,45.0,28.0,52,30.20,10.0,South,9.2,-,N/A,,Clear,170,2013-10-22 05:53:00